Location: Les Jeannots
(43.2262°N, 5.5774°E)
Time: 18:03:19
(UTC+00:00)

Cosmos 1076 Rocket - Pass Details

Date: 05 July 2020
Orbit: 589 x 613 km, 82.5° (Epoch: 12 August)

Event Time Altitude Azimuth Distance (km) Brightness Sun altitude
Exits shadow 21:36:07 31° 110° (ESE) 1,071 4.4 -18.0°
Maximum altitude 21:36:47 32° 91° (E) 1,032 4.4 -18.0°
Drops below altitude 10° 21:40:37 10° 28° (NNE) 1,944 6.5 -18.4°
Sets 21:42:58 0° 18° (NNE) 2,847 7.6 -18.6°
